This demonstration page uses our WeatherBlox Daily Observations layout. Learn more.

Left ArrowRight Arrow

36.19886, -115.1175

Hourly Observations for February 4, 2017

Temp ( °F °C ) Dew Point ( °F °C ) Humidity (%) Winds ( mph kmh ) Pressure ( in mb ) Visibility ( mi km ) Precip ( " mm )
12:53 am 00:53 Clear 57 13.9 38 3.3 49 49 SSW 17 28 29.99 1016 10 16 0.00 0.00
1:53 am 01:53 Clear 56 13.3 39 3.9 53 53 SSW 7 11 30.00 1016 10 16 0.00 0.00
2:53 am 02:53 Clear 54 12.2 39 3.9 57 57 SSW 5 7 30.01 1016 10 16 0.00 0.00
3:53 am 03:53 Clear 49 9.4 39 3.9 69 69 WNW 5 7 30.03 1017 10 16 0.00 0.00
4:53 am 04:53 Clear 48 8.9 39 3.9 71 71 W 5 7 30.04 1017 10 16 0.00 0.00
5:53 am 05:53 Clear 47 8.3 39 3.9 74 74 SSW 6 9 30.06 1018 10 16 0.00 0.00
6:53 am 06:53 Sunny 46 7.8 39 3.9 77 77 Calm 30.09 1019 10 16 0.00 0.00
7:53 am 07:53 Sunny 49 9.4 39 3.9 69 69 Calm 30.11 1020 10 16 0.00 0.00
8:53 am 08:53 Sunny 52 11.1 40 4.4 64 64 Calm 30.12 1020 10 16 0.00 0.00
9:53 am 09:53 Sunny 55 12.8 40 4.4 57 57 Calm 30.13 1020 10 16 0.00 0.00
10:53 am 10:53 Sunny 57 13.9 40 4.4 53 53 Calm 30.11 1020 10 16 0.00 0.00
11:53 am 11:53 Sunny 60 15.6 39 3.9 46 46 Calm 30.08 1019 10 16 0.00 0.00
12:53 pm 12:53 Sunny 62 16.7 38 3.3 41 41 E 8 13 30.04 1017 10 16 0.00 0.00
1:53 pm 13:53 Sunny 63 17.2 37 2.8 38 38 ENE 6 9 30.02 1017 10 16 0.00 0.00
2:53 pm 14:53 Sunny 64 17.8 37 2.8 37 37 E 9 15 30.01 1016 10 16 0.00 0.00
3:53 pm 15:53 Sunny 64 17.8 37 2.8 37 37 ENE 13 20 30.01 1016 10 16 0.00 0.00
4:53 pm 16:53 Sunny 63 17.2 36 2.2 37 37 E 10 17 30.02 1017 10 16 0.00 0.00
5:53 pm 17:53 Clear 60 15.6 37 2.8 42 42 ENE 8 13 30.03 1017 10 16 0.00 0.00
6:53 pm 18:53 Clear 58 14.4 38 3.3 48 48 NE 5 7 30.05 1018 10 16 0.00 0.00
7:53 pm 19:53 Clear 57 13.9 38 3.3 49 49 NNE 3 6 30.05 1018 10 16 0.00 0.00
8:53 pm 20:53 Clear 54 12.2 38 3.3 55 55 N 3 6 30.06 1018 10 16 0.00 0.00
9:53 pm 21:53 Clear 52 11.1 39 3.9 61 61 N 5 7 30.07 1018 10 16 0.00 0.00
10:53 pm 22:53 Clear 51 10.6 38 3.3 61 61 N 7 11 30.08 1019 10 16 0.00 0.00
11:53 pm 23:53 Clear 51 10.6 37 2.8 59 59 N 9 15 30.08 1019 10 16 0.00 0.00

Powered by AerisWeather